Location: Munkebjergskolens Observatorium
(55.3864°N, 10.3987°E)
Time: 05:29:13
(UTC+02:00)

Oscar 19 - Pass Details

Date: 10 April 2023
Orbit: 773 x 789 km, 98.8° (Epoch: 07 June)

Event Time Altitude Azimuth Distance (km) Brightness Sun altitude
Rises 04:58:46 0° 20° (NNE) 3,281 14.8 -12.3°
Reaches altitude 10° 05:01:15 10° 28° (NNE) 2,351 14.2 -12.0°
Maximum altitude 05:06:05 39° 97° (E) 1,176 12.1 -11.4°
Drops below altitude 10° 05:10:55 10° 166° (SSE) 2,344 12.9 -10.9°
Sets 05:13:22 0° 174° (S) 3,270 13.6 -10.6°
